Location: Gradaro
(45.0833°N, 10.8833°E)
Time: 09:26:12
(UTC+00:00)

Meteor 1-10 Rocket - Pass Details

Date: 29 November 2020
Orbit: 836 x 910 km, 81.3° (Epoch: 23 January)

Event Time Altitude Azimuth Distance (km) Brightness Sun altitude
Rises 05:13:05 0° 347° (NNW) 3,398 7.1 -13.7°
Reaches altitude 10° 05:15:30 10° 345° (NNW) 2,462 6.3 -13.3°
Maximum altitude 05:21:02 70° 263° (W) 900 4.2 -12.3°
Drops below altitude 10° 05:26:36 10° 181° (S) 2,474 6.9 -11.4°
Sets 05:29:02 0° 179° (S) 3,416 7.6 -11.0°
